User: anonymous   Login
Location: Unspecified
(0.0000°N, 0.0000°E)
Time: 02:45:44
(UTC+00:00)
Language:

ITAMSAT 1 - Orbit

View from above orbital plane
View from above orbital plane
View from above satellite
View from above satellite

Ground track
Ground track

The orbit data is extracted from the following two-line orbital elements,

1 22826U 93061D   17147.44744665 -.00000006 +00000-0 +15253-4 0  9996
2 22826 098.8047 112.8603 0009493 028.8723 331.2983 14.30325170234615
Epoch (UTC): 27 May 2017 10:44:19
Eccentricity: 0.0009493
inclination: 98.8047°
perigee height: 784 km
apogee height: 797 km
right ascension of ascending node: 112.8603°
argument of perigee: 28.8723°
revolutions per day: 14.30325170
mean anomaly at epoch: 331.2983°
orbit number at epoch: 23461

The dashed part of the orbit path shows where the satellite is in the earth's shadow,  

DLR